sat.trackr.live / text

‹ back to catalog

YUNHAI-2 01E

NORAD 43913 · 2018-112E

PAYLOAD ACTIVE UNKNOWN

§ Identity

Operator
Country
PRC
Launch date
2018-12-29
Launch site
JSC
Launch vehicle
Mass (kg)
RCS (m²)

External: N2YO · Heavens-Above · Gunter

§ Orbital elements

Epoch: 2026-09-09T04:58:48.427680Z

Period
100.77 min
Inclination
50.0060°
Eccentricity
0.0005235
Mean motion
14.29038625 rev/d
Perigee alt
791.2 km
Apogee alt
798.7 km
Semi-major
7,173.1 km
B*
4.0744e-5
RAAN
170.0603°
Arg perigee
303.3323°
Mean anomaly
56.7091°
Rev number
40,117

§ Raw data

YUNHAI-2 01E1 43913U 18112E   26252.20750495 -.00000058  00000+0  40744-4 0  99982 43913  50.0060 170.0603 0005235 303.3323  56.7091 14.29038625401173

JSON: /api/v1/satellites/43913 · /tle

For live sub-satellite position, see the globe view (requires WebGL).

§ Visibility from observer

Set your observer location to see the next 7 days of passes ≥ 10°. The values pass through the URL so the page stays shareable.

No JS? Fill the form by hand. The geolocation button needs JavaScript.